AirNav  
 
 577 users online  

KEGT Wellington Municipal Airport
Wellington, Kansas, USA

GOING TO WELLINGTON?


FAA INFORMATION EFFECTIVE 25 MARCH 2021

Location

FAA Identifier: EGT
Lat/Long: 37-19-29.9846N 097-23-18.0815W
37-19.499743N 097-23.301358W
37.3249957,-97.3883560
(estimated)
Elevation: 1277 ft. / 389.2 m (surveyed)
Variation: 03E (2020)
From city: 3 miles N of WELLINGTON, KS
Time zone: UTC -5 (UTC -6 during Standard Time)
Zip code: 67152

Airport Operations

Airport use: Open to the public
Activation date: 11/1942
Control tower: no
ARTCC: KANSAS CITY CENTER
FSS: WICHITA FLIGHT SERVICE STATION
NOTAMs facility: ICT (NOTAM-D service available)
Attendance: 0800-1700
Wind indicator: lighted
Segmented circle: no
Lights: ACTVT REIL RWY 18 & 36; PAPI RWY 18 & 36; HIRL RWY 18/36 - CTAF.
Beacon: white-green (lighted land airport)
Operates sunset to sunrise.

Airport Communications

CTAF/UNICOM: 122.8
WX AWOS-3: 118.875 (620-326-2470)
WICHITA APPROACH: 134.85
WICHITA DEPARTURE: 134.85
WX ASOS at WLD (19 nm SE): 118.025 (620-221-9121)
WX ASOS at ICT (20 nm N): PHONE 316-945-8022

Nearby radio navigation aids

VOR radial/distance  VOR name  Freq  Var
ICTr153/26.9WICHITA VORTAC113.8007E
PERr337/36.4PIONEER VORTAC113.2006E
ANYr068/38.7ANTHONY VORTAC112.9007E

Airport Services

Fuel available: 100LL JET-A
AFT HRS CALL (620) 440-2213.
SELF SVC FUEL 100LL AVBL 24 HR WITH CREDIT CARD.
Parking: tiedowns
Airframe service: MAJOR
Powerplant service: MAJOR
Bottled oxygen: NONE
Bulk oxygen: NONE

Runway Information

Runway 18/36

Dimensions: 5201 x 100 ft. / 1585 x 30 m
Surface: concrete, in good condition
Weight bearing capacity: 
Single wheel: 49.0
Double wheel: 60.0
Runway edge lights: high intensity
RUNWAY 18  RUNWAY 36
Latitude: 37-19.928178N37-19.071307N
Longitude: 097-23.306732W097-23.295985W
Elevation: 1276.9 ft.1271.0 ft.
Traffic pattern: leftleft
Runway heading: 176 magnetic, 179 true356 magnetic, 359 true
Markings: nonprecision, in good conditionnonprecision, in good condition
Visual slope indicator: 4-light PAPI on left (3.00 degrees glide path)4-light PAPI on left (3.00 degrees glide path)
Runway end identifier lights: yesyes
Touchdown point: yes, no lightsyes, no lights

Airport Ownership and Management from official FAA records

Ownership: Publicly-owned
Owner: CITY OF WELLINGTON
441 NORTH WEST ROAD
WELLINGTON, KS 67152
Phone (620) 440-2213
Manager: MATTHEW D. WIEBE
441 NORTH WEST ROAD
WELLINGTON, KS 67152
Phone (620) 440-2213

Airport Operational Statistics

Aircraft based on the field: 31
Single engine airplanes: 28
Multi engine airplanes: 3
    
Aircraft operations: avg 50/day *
54% transient general aviation
44% local general aviation
1% commercial
<1% military
* for 12-month period ending 27 August 2018

Additional Remarks

FOR SPECIAL REQS & AFT HRS CALL 620-440-2213.
KEY CODE FOR PILOT LOUNGE 1228
FOR CD CTC WICHITA APCH AT 316-350-1520.

Instrument Procedures

NOTE: All procedures below are presented as PDF files. If you need a reader for these files, you should download the free Adobe Reader.

NOT FOR NAVIGATION. Please procure official charts for flight.
FAA instrument procedures published for use from 25 March 2021 at 0901Z to 22 April 2021 at 0900z.

 
IAPs - Instrument Approach Procedures
RNAV (GPS) RWY 18   download (273KB)
RNAV (GPS) RWY 36   download (270KB)
VOR RWY 18   download (234KB)
NOTE: Special Take-Off Minimums/Departure Procedures apply   download (259KB)

Other nearby airports with instrument procedures:

KIAB - Mc Connell Air Force Base (19 nm N)
KWLD - Strother Field Airport (19 nm SE)
KICT - Wichita Dwight D Eisenhower NTL Airport (20 nm N)
KCEA - Cessna Aircraft Field Airport (20 nm N)
KBEC - Beech Factory Airport (24 nm N)
 
Loc | Ops | Rwys | IFR | FBO | Links
Com | Nav | Svcs | Stats | Notes
Area around KEGT (Wellington Municipal Airport)
 
Road maps at: MapQuest Bing Google
 
Aerial photo
WARNING: Photo may not be current or correct
Aerial photo of KEGT (Wellington Municipal Airport)
Photo taken 04-Sep-2015
looking east.

Do you have a better or more recent aerial photo of Wellington Municipal Airport that you would like to share? If so, please send us your photo.

 
Sectional chart

 
Airport distance calculator
Flying to Wellington Municipal Airport? Find the distance to fly.

From to KEGT

Sunrise and sunset
Times for 10-Apr-2021
 Local
(UTC-5)
 Zulu
(UTC)
Morning civil twilight06:3611:36
Sunrise07:0312:03
Sunset19:5900:59
Evening civil twilight20:2601:26

Current date and time
Zulu (UTC)  10-Apr-2021 11:49:04
Local (UTC-5)  10-Apr-2021 06:49:04
 
METAR
KIAB 
18nm N 
101056Z AUTO 33014G20KT 10SM OVC014 06/06 A2981 RMK AO2 PK WND 34026/04 OVC V BKN SLP097 T00590058 $
KWLD 
19nm SE 
101128Z AUTO 31012KT 10SM BKN023 OVC030 06/03 A2983 RMK AO2 T00610033
KICT 
20nm N 
101053Z 33016G24KT 10SM BKN017 06/03 A2982 RMK AO2 PK WND 33027/1000 SLP099 T00610028 $
KBEC 
24nm N 
101135Z AUTO 30009G15KT 10SM OVC014 06/03 A2982 RMK AO2 T00610034
K3AU 
26nm NE 
101135Z AUTO 31010G18KT 10SM BKN015 OVC035 06/03 A2981 RMK AO2
KAAO 
27nm N 
101114Z AUTO 32015G21KT 10SM BKN015 OVC034 06/03 A2981 RMK AO2 T00610033
K1K1 
30nm NE 
101135Z AUTO 32011KT 10SM BKN014 BKN019 OVC034 06/04 A2982 RMK AO2 T00550035
KBKN 
35nm S 
101135Z AUTO 25010KT 10SM OVC021 A2986 RMK AO2
TAF
KIAB 
18nm N 
101000Z 1010/1116 33025G35KT 9999 OVC015 QNH2982INS BECMG 1011/1012 34015G25KT 9999 SCT015 BKN030 QNH2982INS BECMG 1017/1018 33012G18KT 9999 SCT040 QNH2973INS BECMG 1023/1024 33009KT 9999 SKC QNH2961INS BECMG 1114/1115 20012KT 9999 SKC QNH2961INS TX18/1021Z TN04/1012Z
KICT 
20nm N 
100706Z 1007/1106 33015G24KT P6SM SKC FM100800 33014G22KT P6SM BKN020 FM101300 32015G23KT P6SM BKN050 FM101600 32016G25KT P6SM SCT150 FM110000 28006KT P6SM SKC
NOTAMs
Click for the latest NOTAMs
NOTAMs are issued by the DoD/FAA and will open in a separate window not controlled by AirNav.

 

 
 

FBO, Fuel Providers, and Aircraft Ground Support

  
 Business Name 
 
 Contact 
 
 Services / Description 
 
Fuel Prices
 
Comments
  
 Wellington Municipal Airport
620-440-2213
[web site]
[email]
Airport management, Aviation fuel, Aircraft parking (ramp or tiedown), Hangars, Passenger terminal and lounge, Flight training, Aircraft modifications, Pilot supplies, ...
 
Courtesy car   Enterprise Rent-A-Car  
 
More info about Wellington Municipal Airport
Avfuel
100LL Jet A
AS $3.90 --- 
FS --- $2.77 
 Updated 01-Apr-2021
 
   write
AS=Assisted/Self Service
FS=Full service
Update Fuel Prices
 

Aviation Businesses, Services, and Facilities

  
 Business Name 
 
 Contact 
 
 Services / Description 
 
Distance
 
Comments
  
Air Plains Services 620-326-8904
toll-free 800-752-8481
[web site]
[email]
Aircraft maintenance, Avionics sales and service, Aircraft modifications, Aircraft painting, Aircraft interiors, Aircraft cleaning / washing / detailing, Aircraft parts
 
FAA-Approved Repair Station  
 
More info about Air Plains Services
on airport  
   write
 

Would you like to see your business listed on this page?

 If your business provides an interesting product or service to pilots, flight crews, aircraft, or users of the Wellington Municipal Airport, you should consider listing it here.  To start the listing process, click on the button below
 
Add a business
 

Other Pages about Wellington Municipal Airport

cityofwellington.net/municipal-airport
 
Update a link
 
Copyright © AirNav, LLC. All rights reserved. Privacy Policy  Contact